Regional Weather Roundup
Issued by NWS

Home | Current Version | Previous Version | Text Only | Print | Product List | Glossary On
Versions: 1 2 3 4 5 6 7 8 9 10 11 12 13 14 15 16 17 18 19 20 21 22 23 24 25 26 27 28 29 30 31 32 33 34 35 36 37 38 39 40 41 42 43 44 45 46 47 48 49 50
000
ASUS43 KIND 030509
RWRIN

WEATHER ROUNDUP FOR INDIANA
NATIONAL WEATHER SERVICE INDIANAPOLIS IN
100 AM EDT TUE MAY 03 2016

NOTE: "FAIR" INDICATES FEW OR NO CLOUDS BELOW 12,000 FEET WITH NO
SIGNIFICANT WEATHER AND/OR OBSTRUCTIONS TO VISIBILITY.

* - STATION DOES NOT REPORT WEATHER SUCH AS PRECIPITATION OR FOG.

+ - STATION NOT QUALITY CONTROLLED BY THE NATIONAL WEATHER SERVICE.
    USE DATA WITH CAUTION...ESPECIALLY DEWPOINT AND RELATIVE
    HUMIDITY OBSERVATIONS.

INZ001>003-010>013-019-020-030600-
NORTHWEST INDIANA

CITY           SKY/WX    TMP DP  RH WIND       PRES   REMARKS
GARY /AIRPORT/ CLEAR     43  43 100 CALM      30.01F
KNOX *+        CLOUDY    46  41  81 CALM      29.99F
LA PORTE +     CLOUDY    49  41  76 N5        29.99F
MICHIGAN CITY+ MOCLDY    43  43 100 CALM      30.00F
MONTICELLO +   CLOUDY    48  44  85 CALM      29.98F
RENSSELAER +   CLOUDY    48  43  81 CALM      30.00S
VALPARAISO     CLOUDY    48  39  71 CALM      30.00F

$$

LMZ046-743>745-030600-
SOUTHERN LAKE MICHIGAN

STATION/POSITION TIME  TEMP    WIND        PRES    WAVE
                       AIR SEA DIR/SP/G            HT
                 (UTC) (F)     (DEG/KT/KT) (MB)    (FT)
BURNS HARBOR     0400   46     340/  4/  6 1016.6F
MICHIGAN CITY    0400   45     250/  2/  2   N/A

$$

INZ004-005-014>016-021>024-030600-
NORTH CENTRAL INDIANA

CITY           SKY/WX    TMP DP  RH WIND       PRES   REMARKS
GOSHEN         CLOUDY    49  46  90 CALM      29.98F
LOGANSPORT +   RAIN      50  48  93 CALM      29.99S
PERU/GRISSOM   LGT RAIN  49  49 100 N3        29.97S FOG
ROCHESTER +    MOCLDY    52  50  93 CALM      29.98F
SOUTH BEND     CLOUDY    48  40  73 CALM      29.99F
WARSAW +       RAIN      46  46 100 CALM      29.99S

$$

INZ006>009-017-018-025>027-030600-
NORTHEAST INDIANA

CITY           SKY/WX    TMP DP  RH WIND       PRES   REMARKS
ANGOLA *+      CLOUDY    48  39  71 CALM      29.98S
AUBURN +       CLOUDY    48  46  93 CALM      29.98F
FORT WAYNE     CLOUDY    50  47  89 N5        29.98F FOG
HUNTINGTON +   CLOUDY   N/A N/A N/A CALM      29.98S HAZE

$$

INZ028-029-035-036-043>045-051>053-030600-
WEST CENTRAL INDIANA

CITY           SKY/WX    TMP DP  RH WIND       PRES   REMARKS
CRAWFORDSVL +  CLOUDY    48  48 100 N5        29.98F
GREENCASTLE +  CLOUDY    50  50 100 N5        29.98S
LAFAYETTE      CLOUDY    49  46  90 N5        29.99S
TERRE HAUTE    CLOUDY    52  48  86 N6        29.98F

$$

INZ030>032-037>040-046>048-054>057-064-065-030600-
CENTRAL INDIANA

CITY           SKY/WX    TMP DP  RH WIND       PRES   REMARKS
CP ATTERBURY + CLOUDY    52  50  93 NW5       29.96S
FISHERS *+     CLOUDY    50  50 100 CALM      29.96
FRANKFORT +    DRIZZLE   50  50 100 NE6       30.00S
GREENWOOD *+   CLOUDY    54  50  87 NW5       29.96F
INDIANAPOLIS   LGT RAIN  52  50  93 N7        29.94F FOG
-EAGLE CREEK   CLOUDY    52  50  93 N6        29.96S FOG
KOKOMO *+      CLOUDY    50  46  87 NE7       29.97S
MARION +       CLOUDY    49  49  97 NE6       29.98S FOG
SHELBYVILLE    CLOUDY    56  52  86 N8        29.94S
ZIONSVILLE +   CLOUDY    49  49  97 N7        29.97S FOG

$$

INZ033-034-041-042-049-050-058-059-030600-
EAST CENTRAL INDIANA

CITY           SKY/WX    TMP DP  RH WIND       PRES   REMARKS
MUNCIE         CLOUDY    53  49  86 NE5       29.96S

$$

INZ060-061-067>069-081>083-085>088-030600-
SOUTHWEST INDIANA

CITY           SKY/WX    TMP DP  RH WIND       PRES   REMARKS
EVANSVILLE     CLOUDY    55  49  80 CALM      30.00S
HUNTINGBURG *+ CLOUDY    54  48  82 W3        29.98S
WASHINGTON +   CLOUDY    53  53 100 NW3       29.97F

$$

INZ062-063-066-070>080-084-089>092-030600-
SOUTH CENTRAL AND SOUTHEAST INDIANA

CITY           SKY/WX    TMP DP  RH WIND       PRES   REMARKS
BEDFORD +      CLOUDY    54  54 100 CALM      29.96S
BLOOMINGTON    CLOUDY    52  49  89 NW3       29.96F
MADISON *+     MOCLDY    54  50  87 CALM      29.96F
NORTH VERNON + CLOUDY   N/A N/A N/A CALM      29.96S
SEYMOUR +      CLOUDY    55  50  82 CALM      29.96S

$$





USA.gov is the U.S. government's official web portal to all federal, state and local government web resources and services.